"Pseudo-MPEC" for A10e8Tq

Created 2019 Jun 19 17:07:06 UT using Find_Orb

Click here for an explanation of pseudo-MPECs

 
 Astrometry: 
     A10e8Tq  C2019 06 08.51317018 55 16.34 +08 47 44.2    ~68GM 19.13cVNEOCPT05
     A10e8Tq  C2019 06 08.52345018 55 20.23 +08 45 47.8    ~68GM 18.76cVNEOCPT05
     A10e8Tq  C2019 06 08.52840818 55 22.19 +08 44 49.7    ~68GM 18.95cVNEOCPT05
     A10e8Tq  C2019 06 08.53299318 55 23.91 +08 43 57.9    ~68GM 19.20cVNEOCPT05
     A10e8Tq KC2019 06 08;_#1-7,syAstrometry?AQuj[q=-.L8:((rc@3DDc[=igja@0\K+K88
     A10e8Tq KC2019 06 08M-#Dnep,%Rhw$+7-b6pC-9dw!+-]Vmd=Jb15Xq:e`8ik0[yrKIoXK88
     A10e8Tq KC2019 06 08cY/dq!ud@l4($I;u=Z5/#'?^Zk/]`AFt+d8@gf:ZTB^W73Nq#^O^K88
     A10e8Tq KC2019 06 08W3r#wU=r7#@P%`=redacted;Ewyw5Vh#+:CidTV\WS7umf)hcNZ.A17
     A10e8Tq KC2019 06 08)1bZGHJ#b*+n/b*fou;ui(%WxB_XPBD8k1KohgyiMGx5Q*L4Zop9A17
     A10e8Tq KC2019 06 08n[f'1bK$ep5jeW1^exspqXv_8lUQL#fl*QU/U@%D0jA.MUSC1@e#A17
     A10e8Tq IC2019 06 08ft.8Qt+\L`E[ZKD;\e$^EQmSOMIlBifP'r%f.+Sf`$l*@NJxgI)4595
     A10e8Tq KC2019 06 082bA[T=JuG,mr!1yTx9YjxSsQ:K4N(G6#\kt-fAmYH?ZY412G0O2+595
     A10e8Tq KC2019 06 08i7@=sATv#ypdelWD:wXMoF_[n;EHDWT3IN*Bo8sL7i75HOy2WI3p595
     A10e8Tq KC2019 06 08.96466918 58 43.65 +07 16 24.7    ~6917 19.1 GVNEOCPJ95
     A10e8Tq KC2019 06 08.96834418 58 45.27 +07 15 38.1    ~6917 19.0 GVNEOCPJ95
     A10e8Tq KC2019 06 08.97210618 58 46.94 +07 14 50.9    ~6917 18.6 GVNEOCPJ95
     A10e8Tq IC2019 06 08*'1P)/a]B0e-4?aVIx3_ghTEIgoSHZ]QiEi1/.8pC1v*AF\T+\vsL01
     A10e8Tq KC2019 06 086Ps_qhm?I*J8)9$mHpck'`OH`1WkG-^77w.D')OQuXEyKmI58POAL01
     A10e8Tq KC2019 06 08S5,dZ-qxk.jCJgCSpNN)s(T@QC2\LSi;9SuGJNl25(BW%uMS#VM+L01
     A10e8Tq KC2019 06 08.98804418 58 53.95 +07 11 29.7 Duplicat!18.2 GVNEOCPZ80
     A10e8Tq KC2019 06 08.98804418 58 53.96 +07 11 30.2 Duplicat!18.2 GVNEOCPZ80
     A10e8Tq KC2019 06 08eG7bZs5gb*'oZN?.@+03Hg8wnk%r`jtw,TJuuf[`*THK_N5LPVdMK87
     A10e8Tq KC2019 06 08.99498818 58 57.03 +07 10 01.3 Duplicat!18.3 GVNEOCPZ80
     A10e8Tq KC2019 06 08.99498818 58 57.05 +07 10 01.1 Duplicat!18.3 GVNEOCPZ80
     A10e8Tq KC2019 06 08J/'O(AsVrZclick0BU_b[bCuFQCKjq`!(g60pr+DN$X83wcI9`D`K87
     A10e8Tq KC2019 06 09.00222318 59 00.22 +07 08 28.6    ~698M 19.0 GVNEOCPZ80
     A10e8Tq KC2019 06 098B1(mrEo4%wU;agm$;K\-KI+hLDOq^A9pI,BHU0(SfwnFe;$Zf`hK87
     A10e8Tq KC2019 06 09lcMZ6Kca0*T.:H0p28#x6qxU35S#EPZpwWf(1ljKnAmxY]p18]4MK87
     A10e8Tq KC2019 06 096*+6d5JZ7G7WO#s(qN#RAeXrvp/dCEIN53d_nU-_36bj0j8mn3I3157
     A10e8Tq KC2019 06 09kAcaP(*PQ3edQ%2`frM4fXZ$%(7O;(JXC!:N+k;J0FOB,onZr\R8K87
     A10e8Tq KC2019 06 09:2q@:.I/ksA4N\YM1^7W34d)(xUePmYbSV'?rv``JBW^JhBaF/Od157
     A10e8Tq KC2019 06 09l2bGQlo0T3dd:@)fi'Af^%6L!QL0'j#9R$DDMTR;rp/9yv/CW*/;K87
     A10e8Tq KC2019 06 09/yA0PHu18x$EVHi*WvyOF.B^RC;\R0F+R0[T_Gl7K7nN[R+1Q4W9595
     A10e8Tq KC2019 06 09WWxc9y,$y700MdotV-ynUM)-X:8GKQ$))g]w@D!@51*uS6+:jSoq595
     A10e8Tq  C2019 06 09.30371 19 01 29.13 +06 02 45.7    ~697b 18.6 GVNEOCPI52
     A10e8Tq  C2019 06 09.30384 19 01 29.23 +06 02 43.6    ~697b       VNEOCPI52
     A10e8Tq  C2019 06 09.30397 19 01 29.34 +06 02 41.8    ~697b       VNEOCPI52
     A10e8Tq  C2019 06 09.30410 19 01 29.35 +06 02 40.5    ~697b       VNEOCPI52
     A10e8Tq KC2019 06 09\V*PHQTU+]vBZf[6FtAN/'hSZ8J=HTmK+o%:Tb6ww-=2wsYrlTFUV01
     A10e8Tq KC2019 06 09[h.pZ23]gZ.L*3g8OWiL-_Zr4L4'Vi2kENCY6o=I6VRnE%f,(gjpV01
     A10e8Tq KC2019 06 09mp^O2oD:tChqWXAt'WP3%P8l\0N#EqK]]R\Fm%4d\F+1M=aaBkShV01
     A10e8Tq KC2019 06 09(=+ViyV',OcRBBA`%gljo/Q0+w=t%[kdT-Aw`Q$FgS0Ncio/YdrdV01
     A10e8Tq KC2019 06 09N#aFQ@'B+5)L3DWkj^Yw`CK#fA2y_^=hY4myoj^+M0rqBcvm@ssxK88
     A10e8Tq KC2019 06 09_nd8SIVuei/2hYVM^76UYyK9vs4ol2/`v!mE1idRQC1-JOk;e!u?K88
     A10e8Tq 'C2019 06 10hoydEhM+eOyd`h)a@Z*,A.53IUhxtHgiC-G2[SQd,;JtDen$ITFWI89
     A10e8Tq 'C2019 06 10j3'EU%sWFYjI[V^h-HtHMHG8%bKKso8TnGZg%Z)8JRsZk;g95jf]I89
     A10e8Tq 'C2019 06 107%TA%Bnt4Ih\]/;=8-BD[5vj)2ZooqNIgI(/DADZ$SOAk\cj=fY:I89
     A10e8Tq KC2019 06 100bD2u;`y\d'herel\^j#($'6S[5fK-,_!pG':YUtUk877tu[wW_XE23
     A10e8Tq KC2019 06 10G8Z)(F.5,m6oqNsK)=:@.4ojeOCNB$1$$?m1g)g\^dM/A0[*5JyYE23
     A10e8Tq KC2019 06 105Z.3b*7s.;l!3^HI8,4@oUPvj[en4D^H,q0k.]y#*U^=9,g,lULaE23
     A10e8Tq KC2019 06 10dV7.kVW;(a29RtP+QZ`5RTus`g(2OFh@TZwfor1:QB885Dff*DS,K88
     A10e8Tq KC2019 06 10x)%8pa$y-G@[=MunTqaFa_3MiQ'h^4@gmY8U]7*WXeN,:w:2^:MwK88
     A10e8Tq KC2019 06 10MgX[/=IO^=.vLF4hPEGpN-0K!vc;I`C#M!_6rbfW%N-+tuNKuOAIK88
     A10e8Tq KC2019 06 11\+t7(]RQCO/KQHaI0'Z6VhuPcIU^xva4([KdrXop-$A8L\b]dvMtH21
     A10e8Tq KC2019 06 11dHJ(L@JV\_8=djvr`*P[B#q^:5[g/yi4[;:Vfp8%c/ieS@7mJh(FH21
     A10e8Tq KC2019 06 11k_+itLSM;g/W'?wQW:@EZteqgi_pj*JO59I;lPWY94:X1Fig`0ftH21
     A10e8Tq KC2019 06 11^Rl%u+ue6yn%mqA_HxsafgtQ3crNM^Hejnkf@+6@To3K6LMhy5TgH21
     A10e8Tq KC2019 06 11/_TLW(+e,S0LSQ2CKf987)derTL+=f9iCvC_'cFZsLh$^1O$$A.,K88
     A10e8Tq KC2019 06 11[$i,c,rOxexplanationsUY\U:/(\h@GqEL9;ZyP:#?fKshigMxcK88
     A10e8Tq KC2019 06 11.:MjP;0x2/JKJ^$TR'sRGx%6SHW!Wj/L=yV2cTDsXJwN,n0%!W$GK88
     A10e8Tq KC2019 06 111OX7P6[_x8rd!'/N_3a2JKkK)IR*Z[creSS$o,ApqHY.lZd.lh37K88
     A10e8Tq KC2019 06 11:aF!A[dmF=!Jf-@-W707kr]K6Eq$Y/rOprPkS:_SW`WwGw+$iooZK88
     A10e8Tq KC2019 06 11g-,WR#[12.a\Z7Nh,gAcMy;NPFR?o6/,m;/(Mv6h2q%:_e'Z).3DK88
     A10e8Tq  C2019 06 13.44838 20 02 02.68 -21 02 54.1    ~6DB7 17.3 GVNEOCPI52
     A10e8Tq  C2019 06 13.44854 20 02 02.91 -21 02 59.9    ~6DB7 17.1 GVNEOCPI52
     A10e8Tq  C2019 06 13.44871 20 02 03.16 -21 03 06.0    ~6DB7       VNEOCPI52
     A10e8Tq  C2019 06 13.44888 20 02 03.40 -21 03 12.0    ~6DB7       VNEOCPI52
     A10e8Tq KC2019 06 14\dDi)9E)OT5BIyJvO;afxV%c]_lls6(7ZK@spJ$9xNl#$uC7^Amc204
     A10e8Tq KC2019 06 14**wvOgYfH*-u!1RY$P-KS2FKU]/P*rZ5u1e$yDk!)RP^=(=AYKlf204
     A10e8Tq KC2019 06 147m8F*Gv5tVJIhiMAhBqJrUgUL/4QUhl4-:0BhAF7ci*W]NaR]O-0204

Station data:
(157) Frasso Sabino  (N42.227537 E12.811700)  Italy.
(204) Schiaparelli Observatory  (N45.867933 E8.770800)  Italy.  Observer L.
   Buzzi. 0.60-m f/4.64 Newtonian + CCD.
(595) Farra d'Isonzo  (N45.915734 E13.525780)  Italy.  Observers L.
   Bittesini, F. Fabris, E. Pettarin, F. Piani. Measurer E. Pettarin. 0.30-m
   f/4.5 reflector + CCD.
(A17) Guidestar Observatory, Weinheim  (N49.545393 E8.681520)  Germany.
(E23) Arcadia  (S33.621199 E151.071190)  Australia/NSW.
(H21) Astronomical Research Observatory, Westfield  (N39.483057 W87.968270)
   US/Illinois. 0.76-m f/3.0 astrograph + CCD.
(I52) Steward Observatory, Mt. Lemmon Station  (N32.442547 W110.788920)
   US/Arizona.  Observers T. A. Pruyne, B. M. Africano, E. J. Christensen, G.
   A. Farneth, D. C. Fuls, A. R. Gibbs, A. D. Grauer, H. Groeller, J. A.
   Johnson, R. A. Kowalski, S. M. Larson, G. J. Leonard, R. L. Seaman, F. C.
   Shelly. 1.0-m reflector + CCD.
(I89) iTelescope Observatory, Nerpio  (N38.165287 W2.326100)  Spain.
(J95) Great Shefford  (N51.474969 W1.447003)  UK.  Observer P. Birtwhistle.
   0.40-m f/6.0 Schmidt-Cassegrain + CCD.
(K87) Dettelbach Vineyard Observatory  (N49.807693 E10.170110)  Germany.
(K88) GINOP-KHK, Piszkéstető  (N47.917622 E19.893600)  Hungary.  Observer K.
   Sárneczky. 0.60-m Schmidt + CCD.
(L01) Višnjan Observatory, Tičan  (N45.290900 E13.749300)  Croatia.
   Observers K. Korlević, E. Pettarin. Measurer E. Pettarin. 1.0-m f/2.9
   reflector + CCD.
(T05) ATLAS-HKO, Haleakala  (N20.707573 W156.257010)  US/Hawaii.  Observers
   L. Denneau, A. Heinze, H. Weiland, J. Tonry, H. Flewelling, A.
   Fitzsimmons, D. Young, B. Stalder. Measurers L. Denneau, A. Heinze, J.
   Tonry. 0.5-m f/2.0 Schmidt + CCD.
(V01) Mountainville Observatory, Alpine  (N40.448904 W111.760890)  US/Utah.
(Z80) Northolt Branch Observatory  (N51.554661 W0.371920)  UK.  Observer G.
   Wells. Measurer D. Bamberger. 0.25-m f/8 Ritchey-Chrétien + CCD.

Orbital elements:  A10e8Tq
   Perihelion 2019 Jul 30.605070 +/- 0.0371 TT = 14:31:18 (JD 2458695.105070)
Epoch 2019 Jun 14.0 TT = JDT 2458648.5   Earth MOID: 0.0273   Ma: 0.0047
M 331.90184262 +/- 0.059            (J2000 ecliptic)          AutoNEOCP
n   0.60289915 +/- 0.000796         Peri.  234.47731 +/- 0.031
a   1.38773412 +/- 0.00122          Node    83.11402 +/- 0.0014
e   0.3226341 +/- 0.000597          Incl.   23.69037 +/- 0.025
P   1.63/597.10d           H 23.1   G  0.15   U  8.0  
q 0.94000375 +/- 3.03e-6    Q 1.83546449 +/- 0.00244
66 of 70 observations 2019 June 8-14; mean residual 0".37
Residuals in arcseconds: 
190608 T05  .03-  .06-    190608 K87  .06+  .00     190610 E23  .26-  .11+    
190608 T05  .37-  .76+    190609 Z80  .07-  .99-    190610 E23  .23-  .15-    
190608 T05  .66+  .68-    190609 K87  .13+  .08-    190610 K88  .10-  .19+    
190608 T05  .20+  .01-    190609 K87  .19-  .21-    190610 K88  .15+  .10-    
190608 K88  .49-  .58+    190609 157  .03+  .13-    190610 K88  .29+  .18+    
190608 K88  .05-  .64+    190609 K87  .14-  .11-    190611 H21  .07+  .15-    
190608 K88  .34-  .83+    190609 157  .16+  .53-    190611 H21  .04+  .05-    
190608 A17  .19-  .29+    190609 K87  .53-  .29-    190611 H21  .15+  .01+    
190608 A17  .12-  1.0+    190609 595  .25-  .21+    190611 H21  .34+  .13+    
190608 A17  .15-  .02-    190609 595  .08+  .38+    190611 K88  .19+  .18+    
190608 595  .62-  .73+    190609 I52  .24-  .44-    190611 K88  .04+  .48+    
190608 595  .47-  1.1+    190609 I52  .36+  .77-    190611 K88  .12-  .58+    
190608 595  .47-  .68+    190609 I52  1.1+  .80-    190611 K88  .28-  .61+    
190608 J95  .22+  .12+    190609 I52  .35+  .33-    190611 K88  .14+  .25+    
190608 J95  .02-  .20-    190609 V01  .58-  .57-    190611 K88  .27+  .41+    
190608 J95  .07-  .01+    190609 V01  .30+  .10-    190613 I52  .19-  .19-    
190608 L01  .19+  .22+    190609 V01  .23-  .20-    190613 I52  .14-  .23-    
190608 L01  .17+  .17+    190609 V01  .15-  .32-    190613 I52  .01-  .21-    
190608 L01  .14+  .01-    190609 K88  .05+  .35+    190613 I52  .01-  .09-    
190608 Z80( .24+  .22+)   190609 K88  .49+  .06-    190614 204  .28-  .19+    
